Weather History for K36U - January, 2013

Change the Weather History Date:

Thursday, January 31, 2013

  Actual Average (KPVU) Record (KPVU)
Temperature  
Mean Temperature 32 °F -  
Max Temperature 41 °F 37 °F 60 °F (2003)
Min Temperature 23 °F 22 °F -10 °F (1985)
Degree Days  
Heating Degree Days 33    
Moisture  
Dew Point 26 °F    
Average Humidity 87    
Maximum Humidity 100    
Minimum Humidity 61    
Precipitation  
Precipitation 0.00 in - - ()
Sea Level Pressure  
Sea Level Pressure 30.27 in    
Wind  
Wind Speed 1 mph (SE)    
Max Wind Speed 5 mph    
Max Gust Speed -    
Visibility 6 miles    
Events Fog , Snow    
Averages and records for this station are not official NWS values.
T = Trace of Precipitation, MM = Missing Value Source: NWS Daily Summary

Daily Weather History Graph

Daily Weather History Graph

Search for Another Location

Airport or City:

Trip Planner

Search our weather history database for the weather conditions in past years. The results will help you decide how hot, cold, wet, or windy it might be!

Date:

Astronomy

Jan. 31, 2013 Rise Set
Actual Time 7:35 AM MST 5:43 PM MST
Civil Twilight 7:06 AM MST 6:12 PM MST
Nautical Twilight 6:34 AM MST 6:44 PM MST
Astronomical Twilight 6:02 AM MST 7:16 PM MST
Moon 10:50 PM MST (1/31) 9:36 AM MST (1/31)
Length of Visible Light 11h 05m
Length of Day
10h 07m
Waning Gibbous, 79% of the Moon is Illuminated
Jan 31
Waning Gibbous
Feb 3
Last Quarter
Feb 10
New
Feb 17
First Quarter
Feb 25
Full

Hourly Weather History & Observations

Time (MST) Temp. Windchill Dew Point Humidity Pressure Visibility Wind Dir Wind Speed Gust Speed Precip Events Conditions
12:15 AM 30.2 °F 26.7 °F 28.4 °F 93% 30.21 in 5.0 mi North 3.5 mph - N/A Snow Light Snow
12:35 AM 28.4 °F 24.6 °F 28.4 °F 100% 30.20 in 3.0 mi SW 3.5 mph - N/A Snow Light Snow
12:55 AM 28.4 °F - 28.4 °F 100% 30.22 in 2.5 mi Calm Calm - N/A Snow Light Snow
1:15 AM 30.2 °F - 28.4 °F 93% 30.21 in 3.0 mi Calm Calm - N/A Snow Light Snow
1:35 AM 30.2 °F 26.7 °F 28.4 °F 93% 30.22 in 2.0 mi West 3.5 mph - N/A Snow Light Snow
1:55 AM 30.2 °F - 28.4 °F 93% 30.22 in 1.8 mi Calm Calm - N/A Snow Light Snow
2:15 AM 30.2 °F - 28.4 °F 93% 30.23 in 2.0 mi Calm Calm - N/A Snow Light Snow
2:35 AM 30.2 °F - 28.4 °F 93% 30.24 in 2.0 mi Calm Calm - N/A Snow Light Snow
2:55 AM 30.2 °F - 28.4 °F 93% 30.24 in 1.8 mi Calm Calm - N/A Snow Light Snow
3:15 AM 30.2 °F - 28.4 °F 93% 30.24 in 1.8 mi Calm Calm - N/A Snow Light Snow
3:35 AM 30.2 °F - 28.4 °F 93% 30.25 in 1.8 mi Calm Calm - N/A Snow Light Snow
3:55 AM 30.2 °F - 28.4 °F 93% 30.24 in 1.8 mi Calm Calm - N/A Snow Light Snow
4:15 AM 28.4 °F - 28.4 °F 100% 30.25 in 2.0 mi Calm Calm - N/A Snow Light Snow
4:35 AM 30.2 °F 25.4 °F 28.4 °F 93% 30.25 in 2.5 mi East 4.6 mph - N/A Snow Light Snow
4:55 AM 30.2 °F - 28.4 °F 93% 30.25 in 3.0 mi Calm Calm - N/A   Overcast
5:15 AM 30.2 °F - 28.4 °F 93% 30.25 in 2.5 mi Calm Calm - N/A   Overcast
5:35 AM 28.4 °F - 28.4 °F 100% 30.26 in 0.5 mi Calm Calm - N/A Fog Light Freezing Fog
5:55 AM 26.6 °F - 24.8 °F 93% 30.26 in 5.0 mi Calm Calm - N/A   Overcast
6:15 AM 23.0 °F - 23.0 °F 100% 30.26 in 7.0 mi Calm Calm - N/A   Overcast
6:35 AM 23.0 °F - 21.2 °F 93% 30.27 in 5.0 mi Calm Calm - N/A   Overcast
6:55 AM 23.0 °F - 21.2 °F 93% 30.27 in 10.0 mi Calm Calm - N/A   Overcast
7:15 AM 23.0 °F - 21.2 °F 93% 30.28 in 10.0 mi Calm Calm - N/A   Overcast
7:35 AM 23.0 °F - 23.0 °F 100% 30.29 in 1.5 mi Calm Calm - N/A   Overcast
7:55 AM 24.8 °F - 23.0 °F 93% 30.29 in 0.2 mi Calm Calm - N/A Fog Light Freezing Fog
8:15 AM 26.6 °F - 26.6 °F 100% 30.29 in 0.2 mi Calm Calm - N/A Fog Light Freezing Fog
8:35 AM 28.4 °F - 26.6 °F 93% 30.30 in 0.2 mi Calm Calm - N/A Fog Light Freezing Fog
8:55 AM 28.4 °F - 26.6 °F 93% 30.31 in 0.2 mi Calm Calm - N/A Fog Light Freezing Fog
9:15 AM 28.4 °F - 28.4 °F 100% 30.32 in 0.2 mi Calm Calm - N/A Fog Light Freezing Fog
9:35 AM 28.4 °F 24.6 °F 28.4 °F 100% 30.32 in 0.2 mi East 3.5 mph - N/A Fog Light Freezing Fog
9:55 AM 26.6 °F - 26.6 °F 100% 30.32 in 0.2 mi Calm Calm - N/A Fog Light Freezing Fog
10:15 AM 26.6 °F - 26.6 °F 100% 30.32 in 0.2 mi Calm Calm - N/A Fog Light Freezing Fog
10:35 AM 30.2 °F - 28.4 °F 93% 30.32 in 0.2 mi Calm Calm - N/A Fog Light Freezing Fog
10:55 AM 30.2 °F - 26.6 °F 86% 30.33 in 0.2 mi Calm Calm - N/A Fog Light Freezing Fog
11:15 AM 30.2 °F - 26.6 °F 86% 30.33 in 0.2 mi Calm Calm - N/A Fog Light Freezing Fog
11:35 AM 30.2 °F - 26.6 °F 86% 30.32 in 0.2 mi Calm Calm - N/A Fog Light Freezing Fog
11:55 AM 32.0 °F - 28.4 °F 87% 30.32 in 2.5 mi Calm Calm - N/A   Haze
12:15 PM 33.8 °F - 28.4 °F 81% 30.31 in 10.0 mi Calm Calm - N/A   Scattered Clouds
12:35 PM 33.8 °F - 28.4 °F 81% 30.30 in 10.0 mi Calm Calm - N/A   Scattered Clouds
12:55 PM 32.0 °F - 28.4 °F 87% 30.29 in 7.0 mi Calm Calm - N/A   Scattered Clouds
1:15 PM 32.0 °F - 28.4 °F 87% 30.28 in 10.0 mi Calm Calm - N/A   Scattered Clouds
1:35 PM 33.8 °F - 28.4 °F 81% 30.28 in 10.0 mi Calm Calm - N/A   Scattered Clouds
1:55 PM 35.6 °F - 28.4 °F 75% 30.26 in 10.0 mi Calm Calm - N/A   Scattered Clouds
2:15 PM 35.6 °F - 28.4 °F 75% 30.26 in 10.0 mi Calm Calm - N/A   Clear
2:35 PM 37.4 °F - 30.2 °F 75% 30.26 in 10.0 mi Calm Calm - N/A   Scattered Clouds
2:55 PM 41.0 °F - 28.4 °F 61% 30.26 in 10.0 mi Calm Calm - N/A   Mostly Cloudy
3:15 PM 37.4 °F - 26.6 °F 65% 30.26 in 10.0 mi Calm Calm - N/A   Overcast
3:35 PM 37.4 °F 33.8 °F 28.4 °F 70% 30.26 in 10.0 mi North 4.6 mph - N/A   Mostly Cloudy
3:55 PM 39.2 °F - 28.4 °F 65% 30.26 in 10.0 mi Calm Calm - N/A   Scattered Clouds
4:15 PM 33.8 °F - 26.6 °F 75% 30.26 in 10.0 mi Calm Calm - N/A   Clear
4:35 PM 35.6 °F - 26.6 °F 70% 30.26 in 10.0 mi Calm Calm - N/A   Scattered Clouds
4:55 PM 33.8 °F - 26.6 °F 75% 30.26 in 10.0 mi Calm Calm - N/A   Scattered Clouds
5:15 PM 33.8 °F 30.8 °F 26.6 °F 75% 30.26 in 10.0 mi SSW 3.5 mph - N/A   Mostly Cloudy
5:35 PM 32.0 °F - 24.8 °F 75% 30.26 in 10.0 mi Calm Calm - N/A   Scattered Clouds
5:55 PM 32.0 °F - 24.8 °F 75% 30.26 in 10.0 mi Calm Calm - N/A   Mostly Cloudy
6:15 PM 32.0 °F - 24.8 °F 75% 30.27 in 10.0 mi Calm Calm - N/A   Overcast
6:35 PM 32.0 °F - 26.6 °F 80% 30.28 in 10.0 mi Calm Calm - N/A   Overcast
6:55 PM 32.0 °F - 26.6 °F 80% 30.28 in 10.0 mi Calm Calm - N/A   Overcast
7:15 PM 30.2 °F - 24.8 °F 80% 30.28 in 10.0 mi Calm Calm - N/A   Overcast
7:35 PM 30.2 °F - 24.8 °F 80% 30.28 in 10.0 mi Calm Calm - N/A   Mostly Cloudy
7:55 PM 28.4 °F - 24.8 °F 86% 30.28 in 10.0 mi Calm Calm - N/A   Overcast
8:15 PM 30.2 °F - 24.8 °F 80% 30.27 in 10.0 mi Calm Calm - N/A   Overcast
8:35 PM 30.2 °F - 24.8 °F 80% 30.27 in 10.0 mi Calm Calm - N/A   Overcast
8:55 PM 28.4 °F - 23.0 °F 80% 30.27 in 10.0 mi Calm Calm - N/A   Overcast
9:15 PM 28.4 °F - 24.8 °F 86% 30.27 in 10.0 mi Calm Calm - N/A   Overcast
9:35 PM 30.2 °F - 26.6 °F 86% 30.27 in 10.0 mi Calm Calm - N/A   Overcast
9:55 PM 28.4 °F - 24.8 °F 86% 30.27 in 10.0 mi Calm Calm - N/A   Overcast
10:15 PM 28.4 °F 24.6 °F 24.8 °F 86% 30.27 in 10.0 mi SE 3.5 mph - N/A   Overcast
10:35 PM 28.4 °F - 24.8 °F 86% 30.27 in 10.0 mi Calm Calm - N/A   Overcast
10:55 PM 28.4 °F - 23.0 °F 80% 30.27 in 10.0 mi Calm Calm - N/A   Overcast
11:15 PM 26.6 °F - 23.0 °F 86% 30.27 in 10.0 mi Calm Calm - N/A   Overcast
11:35 PM 24.8 °F - 21.2 °F 86% 30.27 in 10.0 mi Calm Calm - N/A   Mostly Cloudy
11:55 PM 24.8 °F - 21.2 °F 86% 30.27 in 10.0 mi Calm Calm - N/A   Overcast